Theta_e
336 335 334 333 334 334 334 334 335 335 335 335 336 338 339 339 340 340 340 340 340 339 339 337 336 335 334 335 332 330 330 330 330 330 330 330 330 330 330 330 330 330 330 330 330 331 331 332 332 332 332 332 332 332 331 331 331 331 331 331 331 330 329 328 327 326 326 327 327 326 325 324 324 324 324 323 323 324 325 325 325 326 326 326 325
334 334 334 333 333 333 333 334 334 334 333 334 335 337 339 339 340 340 339 340 339 339 337 336 335 334 334 333 330 328 329 329 329 328 329 329 329 329 329 329 329 330 329 328 329 331 331 331 331 331 331 331 331 331 330 330 330 330 330 330 330 330 329 328 326 326 328 328 328 327 326 326 325 325 325 323 321 322 324 325 325 326 327 326 326
334 333 334 334 333 333 333 333 333 333 333 333 334 335 337 338 339 340 339 339 338 337 335 334 333 333 332 331 328 327 328 329 328 328 328 329 328 327 327 327 328 328 327 327 328 329 330 330 330 330 331 330 330 330 330 330 329 329 330 329 329 329 328 327 326 326 328 327 328 328 327 328 327 326 326 324 321 322 324 326 326 326 326 326 326
335 333 333 333 334 333 333 333 332 333 333 333 333 334 335 336 337 338 339 338 337 336 334 333 332 332 331 329 327 326 327 328 328 328 328 327 325 325 325 326 327 327 325 325 325 326 328 328 329 329 330 330 330 330 330 329 329 329 329 329 329 329 328 326 325 326 326 326 327 327 325 327 327 326 327 324 323 324 325 326 325 325 325 325 325
336 334 332 333 334 333 333 332 331 332 332 332 332 333 334 334 335 336 337 338 336 335 334 332 332 332 330 328 327 327 327 328 327 327 326 325 323 323 322 324 326 326 324 323 322 322 324 326 328 328 328 329 329 329 329 329 329 329 329 329 329 330 328 325 324 324 324 325 326 326 325 326 327 326 326 325 324 325 325 325 325 325 324 324 324
335 334 332 333 334 333 333 332 331 331 331 332 332 333 334 334 333 334 335 337 336 334 333 331 331 330 328 327 328 328 327 327 327 325 324 323 322 321 320 321 323 325 324 323 321 321 323 325 326 326 327 328 328 328 328 327 327 328 328 328 329 329 327 326 325 324 324 324 325 325 326 326 326 326 326 325 325 324 323 322 321 320 320 319 318
333 333 331 332 333 333 333 332 331 331 331 331 332 333 334 333 332 333 334 335 335 334 332 330 330 330 327 326 326 327 327 325 324 323 322 322 320 319 320 320 322 324 324 322 322 322 323 324 325 325 326 326 327 328 327 327 327 327 328 328 328 327 327 327 327 326 326 325 325 324 323 323 324 325 326 326 324 320 318 318 315 314 314 314 314
332 331 330 331 333 333 333 332 331 331 331 330 331 333 333 332 332 332 333 334 334 334 331 330 329 329 327 325 325 325 325 323 322 321 321 320 319 319 320 320 321 322 322 323 323 321 321 321 322 324 324 325 327 327 327 327 327 327 327 327 327 327 326 327 327 327 327 327 326 324 323 322 323 324 325 326 324 319 316 315 313 312 311 312 312
333 331 330 332 333 333 333 332 331 330 330 330 331 332 333 332 331 331 331 332 332 332 330 330 329 327 326 325 325 325 324 322 322 321 320 319 319 319 320 320 320 320 320 321 323 321 320 319 320 323 325 325 326 326 327 327 327 328 327 327 327 327 326 326 327 327 327 327 326 326 325 325 324 324 324 325 324 321 317 315 314 312 311 312 311
332 330 330 331 332 332 332 331 330 329 329 329 330 331 332 331 330 329 329 330 330 330 329 329 328 327 325 324 324 325 324 322 321 320 319 318 318 318 319 319 319 319 319 320 321 320 319 319 319 323 325 324 324 324 324 325 326 327 327 327 327 327 326 326 326 327 327 327 326 327 326 326 326 326 325 324 323 321 319 316 315 315 313 312 311
331 329 329 330 331 331 331 331 330 329 329 329 329 330 330 329 328 327 328 328 328 328 328 328 326 325 325 324 324 324 323 322 321 320 319 318 317 317 318 318 318 319 318 319 319 319 318 318 318 321 324 323 322 322 321 322 323 324 324 325 326 326 326 326 325 325 326 326 326 327 326 326 325 325 324 323 322 320 318 316 315 315 314 313 311
330 328 327 328 329 330 331 331 330 329 329 329 328 328 328 328 326 326 326 326 326 325 324 324 324 324 324 323 323 323 323 322 320 319 318 318 318 317 317 317 317 318 318 318 318 318 318 317 317 319 323 323 321 321 320 321 321 320 320 321 323 324 324 324 325 325 325 325 325 323 321 321 321 320 320 320 320 319 317 316 315 314 314 313 311
329 328 327 327 329 331 331 332 331 330 329 329 329 328 327 327 326 325 324 324 323 322 322 322 322 323 323 323 323 322 322 320 319 318 318 318 318 317 317 317 317 317 318 318 318 317 316 316 317 320 322 322 321 320 320 320 319 317 317 318 319 322 323 323 323 323 323 321 319 317 316 317 316 315 315 315 316 316 315 315 314 314 314 313 312
327 326 326 326 328 331 332 332 332 331 330 329 329 328 328 327 326 325 324 321 320 320 320 321 321 322 322 323 323 322 321 319 318 317 317 318 318 318 317 317 317 317 318 317 315 314 313 315 318 320 321 321 320 320 320 320 318 317 317 316 317 319 320 319 318 319 318 316 315 315 314 314 312 311 311 311 312 312 312 313 313 314 315 313 311
325 325 326 326 328 329 329 328 328 328 329 329 329 328 328 327 326 325 321 319 320 320 321 321 321 322 322 323 322 322 321 319 318 317 314 315 318 318 318 316 315 315 316 314 312 311 311 314 318 318 318 318 318 318 319 318 317 316 317 315 314 315 315 315 314 314 313 313 313 311 310 310 309 309 309 309 310 310 311 313 313 313 314 313 312
325 325 325 325 327 327 325 324 323 323 325 327 328 328 328 328 326 321 318 319 321 322 321 321 322 321 321 323 322 322 321 318 318 318 314 315 317 318 317 314 312 313 314 312 312 311 310 312 315 315 314 314 313 314 315 316 316 316 316 314 312 313 312 311 310 308 307 307 306 305 306 307 307 307 308 307 307 307 309 311 311 312 312 313 312
325 325 325 325 327 326 324 323 322 322 323 324 327 327 328 328 324 318 319 322 323 322 321 321 322 320 318 322 321 320 319 316 317 318 316 315 317 317 317 312 310 312 313 312 312 311 310 309 310 311 310 309 308 308 309 312 314 314 312 310 310 310 309 306 305 304 303 302 302 302 304 307 307 307 308 307 307 307 308 309 309 310 311 311 311
325 325 325 325 325 324 323 322 322 322 323 323 326 326 328 328 323 318 322 325 323 321 321 321 322 321 319 321 320 318 319 318 318 318 316 315 314 315 316 312 309 310 311 312 312 311 310 309 310 310 309 308 306 304 304 306 309 309 309 308 308 307 305 303 303 302 302 303 303 303 305 307 307 308 308 307 307 307 308 308 308 309 310 310 310
325 324 324 324 323 322 322 322 322 323 323 324 325 326 327 328 324 321 322 324 322 320 321 320 321 322 322 322 319 318 320 319 319 318 317 316 312 313 316 314 309 308 309 311 312 311 311 310 310 311 311 310 308 305 303 303 304 305 306 308 307 306 305 305 305 304 304 305 305 306 307 308 307 307 307 307 307 307 308 308 308 308 309 309 310
324 323 323 323 322 322 322 323 323 323 324 324 325 326 326 327 326 324 322 322 321 321 321 320 320 321 322 321 319 319 320 319 319 318 318 316 311 313 317 315 311 310 309 309 310 310 311 311 311 311 311 312 312 309 306 305 305 304 304 307 307 307 307 307 306 306 306 307 307 308 308 307 307 308 307 307 307 307 308 309 309 308 309 308 309
323 323 322 322 322 321 321 323 323 323 323 324 324 325 325 326 326 325 323 322 321 320 320 320 320 320 321 320 319 319 319 319 319 318 318 317 313 314 317 315 313 312 311 309 309 309 310 311 312 312 312 312 313 312 310 308 308 307 306 306 307 307 308 308 307 306 305 306 307 308 307 307 307 307 307 307 307 307 307 307 308 309 308 308 307
322 320 320 320 320 320 320 321 322 322 323 323 324 324 325 325 325 325 324 322 322 321 320 319 319 320 320 319 319 319 319 319 318 318 319 318 314 314 317 316 315 313 312 311 309 309 309 311 311 312 312 312 313 313 312 310 309 309 309 308 307 307 307 307 307 307 306 306 306 306 305 305 305 305 306 307 307 307 307 307 308 308 307 305 305
318 318 319 319 319 318 318 319 320 321 321 322 324 324 324 325 324 324 323 323 323 321 320 320 319 319 319 319 318 318 318 318 317 317 318 318 315 314 316 317 316 314 313 312 311 310 310 311 312 312 312 312 312 312 312 311 310 310 311 311 310 309 308 306 307 307 307 307 307 307 306 305 305 304 305 306 306 306 307 307 306 306 304 303 302
316 317 317 317 317 316 316 316 318 320 320 320 322 322 323 324 324 324 323 323 322 322 321 319 319 319 319 319 318 318 318 317 316 316 318 319 317 314 314 317 317 315 313 313 313 311 310 311 312 313 312 312 312 312 312 312 311 311 311 311 311 311 310 308 308 307 306 306 308 309 308 307 307 306 305 305 305 306 307 306 305 304 303 302 301
314 314 314 313 313 312 313 313 315 317 318 319 320 320 321 322 323 323 323 323 323 322 322 320 319 319 318 319 318 318 318 317 316 317 318 319 317 313 314 317 318 316 315 314 314 313 312 312 312 313 314 313 312 312 311 311 312 311 312 312 312 312 311 311 310 309 308 308 307 308 308 307 307 307 307 306 306 305 306 306 305 304 303 302 302
310 311 310 310 310 309 309 309 311 312 314 317 318 319 320 321 322 323 323 323 323 323 323 322 321 320 319 319 319 318 318 317 318 318 319 319 317 314 314 317 318 317 316 316 316 315 314 314 314 314 314 315 314 314 313 312 312 312 312 312 312 312 311 311 311 311 311 310 309 309 308 307 308 308 307 307 306 306 306 306 305 305 304 303 302
308 309 309 308 308 308 308 308 308 308 309 311 314 317 319 320 322 323 323 323 323 323 323 323 322 322 321 320 319 319 318 318 318 318 318 318 318 316 316 317 317 317 317 316 317 316 316 316 316 315 315 316 316 316 316 315 315 315 315 314 314 313 313 312 312 312 311 311 311 310 310 309 308 309 308 308 308 307 307 306 306 305 303 302 302
307 307 307 307 307 308 309 308 307 307 307 307 308 313 317 319 320 321 321 322 322 322 322 322 322 322 322 321 320 320 319 318 318 318 318 319 319 318 318 318 318 318 318 317 317 317 317 317 317 317 316 317 317 317 316 316 317 317 317 316 316 315 315 314 314 314 314 313 312 311 312 312 312 311 310 309 308 308 307 307 306 305 303 303 302
306 306 306 306 306 308 308 308 308 307 307 306 306 307 311 315 318 320 321 321 321 321 321 321 321 321 321 321 320 320 319 319 319 319 319 319 319 320 319 319 318 318 318 318 318 318 317 317 318 317 316 317 316 317 316 316 317 317 317 317 316 316 316 316 316 317 317 316 315 313 312 314 314 314 311 309 308 308 308 307 307 306 304 304 303
306 306 305 305 306 307 308 307 308 307 307 307 306 305 306 308 312 315 319 320 320 321 320 321 321 321 320 320 319 319 319 319 319 319 320 319 319 319 319 318 318 318 318 319 318 318 318 318 317 317 317 317 316 317 317 317 317 317 316 317 317 317 317 317 317 317 317 317 317 315 314 314 315 314 312 310 308 308 308 308 307 306 305 304 303
304 305 304 304 305 306 306 306 307 307 307 307 307 307 306 305 306 308 313 317 319 320 320 320 320 320 320 319 319 318 319 319 319 319 320 320 319 319 319 318 318 318 318 318 318 318 318 317 317 317 316 316 316 316 317 317 316 316 316 317 317 317 317 317 317 317 317 317 317 317 316 316 316 315 313 311 310 309 308 307 306 305 304 303 302
302 302 303 302 303 304 304 305 305 305 306 306 307 307 306 305 306 305 307 310 313 316 318 319 320 320 320 319 319 319 319 319 319 320 320 320 319 319 319 318 318 318 318 318 318 318 317 317 317 317 316 315 316 316 315 315 314 315 317 318 317 317 317 318 318 318 318 318 317 317 317 317 316 315 313 312 311 309 307 306 305 303 302 302 302
300 300 300 301 302 303 303 303 304 303 303 303 304 305 305 305 305 306 305 306 306 308 311 314 316 319 320 320 320 319 319 319 319 319 319 319 319 319 319 318 318 318 318 318 317 317 317 317 316 316 315 315 314 314 314 314 315 317 318 319 319 319 319 319 319 319 319 319 318 317 317 316 316 315 313 312 311 309 307 305 304 302 301 301 301
300 299 300 301 302 302 302 301 301 301 300 300 301 302 304 304 305 305 306 306 305 305 306 307 310 313 316 318 319 319 319 319 319 319 319 319 319 319 319 319 319 318 318 318 318 317 317 317 316 316 315 315 315 315 315 316 317 318 319 318 318 318 318 319 319 319 319 319 318 317 316 315 314 314 312 311 310 308 306 303 302 301 300 300 301
299 299 300 300 300 300 301 300 299 298 298 299 299 299 301 303 304 303 304 305 306 306 306 306 306 308 309 312 314 316 317 318 318 319 318 319 319 318 319 319 318 318 318 318 318 318 317 317 317 317 317 317 316 315 316 317 318 317 315 314 315 315 315 316 317 318 318 318 317 316 315 313 312 312 311 310 308 306 304 302 301 300 300 301 301
298 298 299 299 298 299 299 299 298 298 298 298 298 298 299 301 302 302 302 304 305 306 306 306 306 306 306 307 308 311 313 315 317 318 318 318 318 318 318 318 318 318 318 317 318 318 318 318 317 317 318 317 315 315 317 318 316 314 313 312 311 313 314 316 316 316 315 314 313 312 311 310 310 310 309 308 306 305 303 301 300 300 301 301 301
298 298 298 298 298 298 298 298 298 299 298 298 298 298 298 299 300 300 301 302 303 304 304 304 304 305 305 306 307 308 309 312 315 317 318 318 317 317 317 317 317 317 317 317 317 317 318 318 317 317 317 317 316 317 317 316 314 313 312 311 311 313 314 314 313 312 311 310 310 309 308 308 308 307 305 304 303 303 302 301 301 301 301 300 299
298 298 298 298 298 298 298 298 298 298 298 298 298 298 299 299 299 299 299 301 302 303 303 303 303 304 304 305 306 307 308 310 312 315 317 316 313 312 313 314 315 317 317 317 317 317 317 318 317 317 317 317 317 317 315 314 314 313 312 311 312 313 313 311 310 309 309 308 307 306 306 305 305 303 302 302 301 302 302 301 301 301 300 298 298
297 297 297 297 297 297 298 298 298 298 298 298 298 298 299 300 299 299 299 300 301 301 301 302 303 304 304 304 305 305 306 308 309 312 314 313 310 309 310 311 313 315 315 315 316 315 316 316 316 316 316 316 315 315 314 314 314 313 312 312 312 312 311 309 308 307 305 305 304 303 303 303 303 302 301 301 301 301 301 300 300 300 299 298 297
296 296 296 296 296 296 297 297 297 297 297 298 298 298 298 299 299 299 300 300 300 299 299 299 301 302 302 303 303 304 305 306 307 309 311 310 308 308 309 310 312 314 314 314 314 314 313 313 312 312 313 314 314 314 313 314 313 312 312 312 311 311 309 307 305 304 303 302 301 301 301 301 302 301 301 301 301 300 300 300 299 300 300 298 296
295 295 294 295 295 295 295 295 295 295 296 296 297 297 298 298 298 299 299 300 299 299 298 298 299 299 300 300 301 302 303 305 305 307 308 308 308 308 308 308 309 311 312 312 312 310 309 307 306 306 307 309 311 313 313 313 313 312 311 311 310 310 309 307 304 303 301 301 300 300 300 300 300 301 300 300 300 300 300 299 298 298 297 295 294
294 294 293 293 294 294 294 294 293 293 294 294 295 296 297 297 298 299 299 298 298 298 298 298 298 299 299 300 300 300 302 303 304 306 307 307 307 307 307 306 307 309 310 310 308 306 304 304 304 304 305 307 309 312 312 312 312 311 310 309 309 308 308 307 305 303 301 300 300 300 299 299 300 300 300 299 299 298 298 297 296 295 294 293 293
293 293 292 292 293 293 293 292 292 292 292 292 293 294 295 296 297 298 298 298 298 298 298 298 298 298 299 299 300 300 300 302 303 305 306 307 306 307 307 306 306 307 307 306 304 303 304 304 305 306 307 308 309 310 311 310 310 309 308 307 307 307 306 306 305 303 301 300 299 299 298 298 298 298 298 298 297 296 295 294 294 293 293 293 292
292 292 291 291 292 292 291 291 291 291 291 291 292 293 294 294 295 296 296 297 297 297 297 297 298 298 299 299 299 300 300 301 302 303 304 305 306 306 306 307 306 306 305 304 304 305 305 304 305 306 307 308 308 309 309 308 308 308 306 305 305 305 304 304 303 302 301 300 299 298 297 297 296 296 296 295 295 294 293 293 293 293 292 292 292
291 291 291 290 291 291 291 291 291 291 291 291 291 291 292 293 293 293 294 294 295 296 296 297 298 298 299 299 299 299 300 300 301 302 303 304 305 306 306 306 306 306 305 304 304 305 305 305 305 306 306 307 307 307 307 306 305 305 305 304 304 303 302 302 302 301 300 299 298 297 296 295 295 294 294 294 293 293 293 293 292 292 292 291 291
291 291 290 290 290 290 290 290 291 290 290 290 290 290 291 291 291 291 292 292 293 294 295 296 297 298 298 299 299 299 300 300 300 301 302 303 304 305 305 305 305 305 305 305 305 305 306 306 305 305 306 306 306 305 305 304 303 303 303 302 302 301 301 301 301 300 298 297 296 296 295 295 294 294 293 293 293 292 292 292 291 291 291 291 291
290 290 290 290 290 290 290 290 290 290 290 290 290 290 290 290 291 291 291 292 292 293 294 295 296 297 298 299 299 299 300 300 300 300 301 302 303 304 304 304 303 303 305 306 306 306 306 306 305 305 305 306 305 304 304 303 303 302 302 301 301 301 300 300 299 298 296 296 295 294 294 294 293 293 292 292 292 292 291 291 291 291 290 290 290
290 290 290 290 290 290 290 290 291 291 291 291 291 291 290 291 291 290 291 291 292 292 293 294 295 296 297 298 299 299 299 300 300 300 300 301 302 302 303 303 302 303 304 304 303 305 306 306 305 305 305 305 305 305 304 304 303 303 302 301 300 300 299 299 298 297 295 295 294 293 293 293 292 292 292 292 292 291 290 290 291 291 290 290 290
290 290 290 290 290 290 290 291 291 291 291 291 291 291 291 291 291 291 291 291 291 291 292 293 294 295 296 297 298 298 299 300 300 300 300 301 301 301 302 302 303 303 304 302 302 303 304 303 303 303 304 304 305 305 305 304 304 304 303 302 301 300 299 298 297 296 295 294 293 293 292 292 292 292 292 292 291 291 291 290 290 290 290 290 289
290 290 290 290 290 290 290 291 291 291 291 291 292 292 292 292 292 292 291 291 291 291 292 292 293 294 295 296 297 298 299 299 300 300 299 299 300 301 301 302 302 303 303 303 303 303 303 302 302 303 303 304 305 305 305 305 304 303 303 303 302 300 298 297 296 295 294 293 293 292 292 292 292 292 292 292 291 291 291 291 290 289 289 289 288
290 290 290 290 290 290 290 291 291 291 291 292 292 292 292 292 292 292 292 292 291 291 291 292 292 293 294 295 296 297 298 299 299 299 299 298 299 300 301 301 301 302 302 302 303 303 303 303 302 302 303 304 305 306 305 304 303 302 301 301 300 298 297 296 295 294 293 293 293 293 292 292 292 292 292 291 291 291 291 290 290 290 289 289 288
Wind_Speed
8 9 11 13 14 17 19 18 19 21 17 13 14 15 14 15 15 13 16 17 17 18 17 15 13 11 9 9 9 8 6 6 6 5 4 4 3 3 2 2 2 3 3 2 3 2 1 3 4 5 6 5 5 5 4 4 4 6 6 6 6 8 8 8 10 11 9 7 4 3 3 3 2 2 2 3 2 1 1 2 2 0 1 3 4
6 7 9 12 13 16 18 19 20 19 17 17 18 18 16 16 16 15 16 18 17 18 16 13 13 12 11 11 11 10 8 8 8 7 6 6 7 6 5 5 4 4 5 4 4 3 1 2 3 4 5 6 6 4 3 3 5 6 6 6 6 8 9 11 15 13 8 6 6 5 4 2 2 3 2 1 1 2 4 4 3 3 3 2 2
7 7 8 11 12 14 16 18 20 19 18 19 19 20 19 17 17 17 18 18 17 16 15 13 14 13 12 12 12 11 11 10 9 8 8 8 8 8 7 6 6 6 7 6 4 3 2 2 2 3 4 5 5 3 2 3 4 5 6 7 8 9 9 13 18 14 9 8 6 4 3 1 1 2 3 3 3 4 5 6 6 5 5 4 4
9 8 8 9 11 13 14 15 18 19 18 19 20 21 21 21 20 20 20 18 17 16 15 15 15 13 11 11 12 11 12 12 10 9 9 9 8 7 6 6 6 6 7 6 5 3 1 1 1 2 3 4 3 2 2 2 3 3 5 6 9 11 10 11 14 12 12 10 5 3 2 2 1 2 3 4 4 4 6 6 6 5 4 4 5
10 10 8 8 10 12 13 15 17 18 19 20 21 22 22 21 21 20 20 19 17 17 16 16 16 15 13 13 13 12 13 12 11 10 9 8 7 6 5 5 6 6 6 6 5 3 2 1 1 1 2 2 2 2 2 2 2 3 4 6 8 10 10 10 9 10 13 12 6 3 3 2 2 4 4 4 5 5 5 6 6 5 4 5 5
11 11 9 9 10 11 12 14 16 17 19 22 22 21 21 19 19 20 20 19 18 18 17 17 17 17 16 15 14 13 13 11 11 11 10 7 6 5 5 6 6 6 6 5 5 4 3 2 1 1 1 1 1 2 2 2 2 2 3 4 6 8 9 9 8 10 12 11 8 5 3 3 4 6 5 4 6 7 7 8 8 8 8 9 9
11 11 9 9 11 12 12 14 16 17 19 21 21 20 20 18 18 20 20 20 19 19 19 19 19 18 16 14 13 13 12 12 11 11 10 8 6 6 7 7 7 6 6 5 4 5 4 3 3 2 2 1 1 2 2 2 2 3 2 4 6 7 8 8 8 9 9 7 6 5 4 5 7 6 4 5 6 7 9 11 12 13 15 15 14
11 11 10 10 11 13 13 13 15 18 20 20 20 20 19 18 18 19 20 20 20 21 20 20 20 17 14 12 10 10 10 11 11 11 10 9 8 8 8 8 8 7 6 4 4 5 5 4 3 2 3 3 3 3 4 4 3 3 3 3 5 6 7 7 7 9 8 7 6 5 6 6 7 6 5 5 6 6 7 10 14 18 20 19 18
11 10 10 10 11 11 11 11 14 17 18 18 19 19 19 18 18 18 19 20 21 21 20 20 19 16 14 13 11 9 8 9 10 9 10 10 10 10 10 9 9 7 5 4 4 5 5 5 4 2 3 4 5 5 5 6 4 3 3 4 5 5 6 6 6 8 8 9 9 8 8 8 6 5 5 5 6 7 6 8 11 16 19 18 17
10 9 8 9 9 9 9 10 13 14 14 15 17 18 19 19 18 17 18 20 20 20 20 20 18 16 15 13 11 11 10 9 9 9 9 10 10 11 10 10 9 7 5 4 4 4 4 4 4 2 3 5 7 8 7 6 4 4 4 5 6 5 5 5 6 8 8 9 10 9 8 8 6 6 6 6 6 6 6 8 9 11 13 13 14
9 8 7 7 7 8 9 10 11 12 11 12 14 17 18 18 17 17 18 18 19 19 19 18 15 14 13 11 10 11 10 10 10 10 10 10 10 10 10 9 9 7 5 5 4 4 3 3 3 3 5 6 8 9 8 7 7 7 7 7 7 7 7 7 8 8 8 8 9 8 7 7 7 7 7 8 7 7 7 8 9 10 12 11 12
8 7 7 7 7 8 10 10 12 13 13 13 14 16 17 17 17 16 16 17 18 18 16 14 13 12 12 10 9 9 9 9 10 10 10 10 9 9 9 8 8 7 6 6 5 4 3 2 2 3 5 6 7 7 7 7 8 10 10 10 10 10 11 11 11 11 10 11 10 9 9 8 7 8 8 7 7 9 9 8 9 10 10 10 9
7 7 8 8 8 10 12 13 14 15 16 16 15 16 16 16 16 16 15 14 13 11 10 9 8 9 10 9 9 8 8 8 8 8 9 9 8 8 7 7 7 7 7 6 5 4 3 2 2 3 4 5 5 6 6 7 9 10 12 12 13 14 14 15 15 15 15 14 14 13 13 11 10 9 8 8 8 9 9 9 9 8 8 9 7
6 6 7 7 6 7 8 8 10 13 15 16 15 15 15 14 15 15 11 9 10 10 9 9 8 8 8 9 9 8 7 8 8 7 6 7 7 7 6 6 7 8 8 7 5 4 3 3 3 4 4 4 4 4 5 7 9 9 10 12 13 14 15 15 16 16 15 14 14 13 12 11 11 10 9 9 9 9 10 11 10 8 8 9 7
6 6 5 5 6 7 8 10 10 5 4 10 12 11 12 12 13 10 14 15 12 10 11 12 12 11 10 10 8 5 6 7 7 5 3 5 7 7 6 5 7 8 8 7 5 5 4 5 5 4 4 4 3 4 5 7 7 8 9 10 12 13 13 14 14 14 13 12 11 12 12 12 12 11 10 9 8 8 9 12 12 9 7 6 7
8 8 8 8 8 11 12 8 9 14 11 5 7 8 9 10 9 16 22 14 10 12 16 16 16 16 14 12 10 8 7 5 3 3 5 7 8 7 6 6 8 9 8 6 5 5 6 6 5 4 4 3 2 3 4 6 6 6 8 9 11 12 12 12 13 13 13 12 13 14 15 15 14 13 13 13 12 11 10 10 9 8 7 5 5
9 9 9 8 8 9 11 10 2 11 13 7 3 5 8 8 13 24 18 10 17 19 19 16 15 19 17 14 15 13 8 6 7 8 8 8 7 6 7 7 9 9 8 7 5 5 6 6 6 5 5 5 4 3 3 4 5 5 7 9 10 10 10 11 12 13 14 14 15 16 17 17 16 15 15 15 15 15 13 9 6 6 6 5 4
9 9 9 9 10 7 6 8 5 4 8 4 2 3 6 8 15 21 13 17 20 19 17 15 17 21 21 20 18 13 8 7 10 10 8 7 7 7 8 8 8 9 8 7 5 5 5 5 6 6 6 7 7 6 5 4 4 6 7 9 9 10 10 12 13 14 15 16 16 17 18 17 16 15 14 13 14 15 14 13 10 7 5 5 5
6 6 6 6 9 7 5 8 8 2 0 1 1 3 6 7 12 17 15 16 17 19 20 21 22 23 24 23 18 12 10 10 12 12 10 9 8 9 10 9 8 8 7 7 6 5 5 5 5 5 6 7 8 7 7 7 6 7 8 9 9 9 11 12 13 13 14 15 16 17 16 15 14 12 12 11 11 12 12 12 12 11 9 8 6
4 5 6 5 6 8 9 11 9 5 4 4 3 4 6 8 11 14 14 14 16 20 22 22 22 24 25 24 18 13 14 15 13 12 11 11 10 10 12 11 9 8 7 7 7 6 6 6 5 5 5 5 6 6 7 7 7 7 8 8 8 8 10 11 12 12 12 13 13 13 13 12 11 10 10 10 10 11 11 10 10 10 10 9 6
6 6 7 7 6 8 12 14 12 9 8 6 6 7 8 8 10 12 14 15 17 20 21 21 23 25 25 23 19 16 17 16 13 12 13 14 12 11 13 12 9 8 8 7 7 7 7 6 6 6 5 4 4 4 5 5 6 6 7 8 8 8 8 10 11 10 10 10 10 11 10 9 9 9 9 10 10 10 10 10 9 9 8 7 6
8 8 8 7 6 9 13 13 11 10 9 8 8 9 9 8 8 11 13 14 16 18 20 21 22 24 23 19 17 16 17 16 14 14 16 16 13 11 13 12 10 9 9 9 8 7 7 7 6 6 5 5 4 3 4 4 4 4 5 5 6 6 6 7 9 9 9 9 9 9 9 9 8 8 8 9 9 9 9 8 8 8 8 7 6
6 7 8 8 10 13 13 11 8 7 7 6 6 7 8 8 9 11 12 14 15 16 18 20 21 22 20 16 15 16 17 15 14 15 18 17 13 10 10 11 10 10 10 10 9 8 7 6 6 5 5 4 4 4 4 4 4 3 3 3 4 4 4 5 6 7 7 7 6 6 7 8 8 8 8 8 9 8 7 7 8 8 8 8 7
7 8 9 11 14 15 13 11 10 9 6 4 5 5 7 8 9 10 11 12 13 14 16 18 18 19 17 15 14 15 16 16 15 16 18 17 13 10 9 9 11 11 11 11 10 10 9 8 7 5 4 4 3 4 4 4 4 3 3 3 4 4 4 4 5 5 5 5 5 5 5 6 7 7 7 7 8 8 7 7 8 8 8 7 7
10 11 11 13 14 15 13 11 11 10 9 7 6 5 4 4 5 6 7 9 10 11 13 15 17 18 17 16 14 14 16 18 17 16 17 16 13 11 10 9 11 12 11 11 11 11 10 8 7 6 5 3 3 3 3 4 4 4 4 5 5 5 6 6 6 6 6 6 6 6 6 6 7 7 7 7 7 7 7 7 7 7 6 5 6
11 11 11 11 11 12 11 9 10 12 13 13 11 8 5 3 1 2 3 5 7 9 10 12 15 17 18 18 17 16 16 17 17 16 17 15 13 12 11 10 11 12 12 11 10 10 8 7 6 5 5 4 3 3 3 3 3 4 4 5 5 6 7 7 8 8 8 8 8 8 9 9 8 8 7 6 7 7 7 6 6 6 5 4 4
10 10 10 10 10 11 11 11 13 15 16 16 15 11 7 4 2 1 2 4 5 7 9 11 13 15 17 18 18 17 16 17 16 16 16 16 15 13 13 12 12 12 12 11 10 9 8 6 5 5 5 4 3 2 3 3 3 4 5 5 6 7 8 9 9 9 10 10 11 12 12 11 10 10 10 10 9 9 8 7 6 5 5 4 4
12 11 11 12 11 11 13 15 16 17 18 19 18 15 11 6 3 1 2 4 5 6 8 10 12 13 15 16 16 16 15 15 14 15 16 16 16 15 15 15 14 14 13 13 12 10 10 8 6 5 6 6 5 5 4 4 5 7 7 8 9 9 10 11 12 12 12 12 13 14 13 12 13 13 14 15 14 11 10 9 8 6 5 4 3
14 13 12 12 12 12 14 16 17 17 18 19 20 19 16 11 6 2 1 3 4 5 7 9 11 12 14 15 15 14 13 13 13 14 15 15 15 16 17 18 17 17 18 18 17 16 15 13 11 9 9 8 8 8 7 7 9 10 11 11 13 13 14 15 15 15 15 14 14 16 15 15 15 15 15 17 16 13 11 10 9 7 6 4 4
14 13 13 12 13 14 15 17 17 17 17 17 18 18 17 15 11 6 3 1 3 5 7 8 9 11 12 13 13 12 12 13 13 13 14 15 15 17 18 20 20 21 22 21 20 19 18 16 15 14 13 10 9 10 9 9 12 14 14 14 15 16 15 15 16 16 16 15 15 17 17 16 16 16 16 17 16 14 13 11 9 8 7 5 5
13 13 13 13 13 15 16 17 17 16 15 15 15 16 18 20 18 15 10 5 3 3 5 8 9 11 12 12 12 12 13 14 14 15 15 16 17 19 20 21 22 22 22 21 20 20 19 19 19 19 18 15 11 10 9 10 12 14 15 14 15 15 15 15 16 16 16 15 14 15 15 15 15 15 14 14 14 15 15 13 10 8 7 6 5
12 12 12 12 13 14 16 16 16 16 15 15 14 16 19 21 22 21 18 12 8 6 5 6 8 10 11 11 12 12 13 15 15 15 15 15 17 17 17 19 22 22 21 20 20 20 20 21 21 22 22 21 16 12 12 14 15 16 15 15 15 16 16 16 16 16 15 13 12 13 14 13 12 11 11 11 12 14 16 15 12 10 9 7 5
11 11 12 12 12 13 14 15 15 15 16 17 18 18 19 20 21 22 21 18 15 12 9 6 6 8 9 10 11 11 12 14 13 12 11 11 12 12 12 14 18 19 18 17 19 22 21 21 22 24 25 24 21 19 17 16 16 15 14 13 13 13 13 14 15 15 14 12 12 11 11 11 9 8 7 8 10 14 16 15 13 12 10 7 5
11 11 11 12 13 14 16 17 17 18 19 21 21 20 19 19 19 19 19 19 18 16 15 12 8 6 7 8 9 10 11 13 13 12 11 10 9 9 10 12 14 14 14 13 15 19 20 20 21 21 21 21 19 16 14 14 13 12 10 10 9 9 10 11 12 12 12 11 10 9 7 6 6 6 5 6 9 14 17 17 14 13 10 7 5
10 10 11 13 14 14 16 17 18 20 21 22 22 21 19 17 17 18 18 16 14 14 15 14 13 9 6 6 7 8 9 10 12 13 14 14 12 11 12 14 14 13 12 12 13 15 17 18 17 17 17 15 12 10 11 12 11 10 8 6 6 7 8 9 9 9 8 7 6 6 5 4 4 4 4 5 10 16 18 17 14 11 8 5 4
9 9 11 12 12 13 13 15 17 17 19 20 21 21 19 17 16 16 17 15 13 12 12 12 13 12 10 8 6 5 6 7 8 10 13 14 13 13 13 14 15 13 12 13 14 14 15 15 16 16 15 12 10 11 13 13 12 11 8 5 5 6 6 6 5 4 3 3 2 3 3 3 3 3 3 5 11 16 16 14 11 8 6 5 4
9 9 10 10 12 13 13 15 16 16 17 19 19 18 18 17 16 16 16 14 13 12 11 11 12 12 12 11 8 5 5 5 5 6 9 10 10 10 10 10 11 11 11 12 13 14 14 14 14 14 12 11 13 15 15 14 13 11 8 5 5 5 5 5 4 5 5 5 5 4 4 3 3 4 6 9 11 12 11 9 8 6 5 5 4
9 10 10 11 13 13 13 15 16 16 17 19 18 17 15 14 15 16 15 13 12 11 12 12 13 13 13 12 10 7 5 6 6 7 8 9 9 9 9 9 10 10 10 11 11 11 11 10 10 9 10 12 15 15 14 13 13 11 8 6 6 6 7 7 7 7 7 6 7 6 6 5 6 8 9 10 9 8 7 6 6 5 5 4 4
10 11 11 12 14 15 15 17 18 18 20 20 19 18 14 11 12 14 14 13 12 13 14 14 14 15 14 12 11 9 7 6 7 8 9 11 11 10 10 9 10 11 11 11 11 12 13 12 11 11 11 12 14 14 13 12 12 11 9 8 8 9 9 9 9 10 10 9 9 9 8 7 8 9 9 9 8 6 5 5 4 4 5 4 4
11 12 12 12 14 15 16 17 17 19 21 21 21 20 16 12 12 13 12 12 13 15 16 16 16 16 15 14 13 11 10 9 8 9 11 13 12 11 11 11 11 13 13 13 14 14 15 14 13 12 11 11 11 11 12 12 12 11 10 9 10 11 12 12 13 13 13 13 12 11 10 9 8 9 8 7 6 5 3 3 3 3 4 4 4
10 11 12 12 12 13 14 15 17 19 21 21 21 20 17 15 14 13 12 13 15 16 16 17 17 17 16 15 14 13 13 12 11 11 13 14 13 13 13 13 13 14 14 15 15 15 15 15 14 13 12 11 10 11 12 12 12 12 11 11 11 11 13 14 14 14 13 14 13 12 11 9 7 7 7 6 5 4 3 3 4 4 4 4 3
10 11 13 13 13 13 13 15 18 20 20 21 21 19 17 17 16 15 15 17 18 17 17 17 17 17 17 16 15 14 13 14 13 12 13 15 16 16 16 15 15 16 16 17 17 17 17 17 15 14 14 13 12 12 12 13 13 13 12 12 11 11 11 11 13 14 13 13 13 13 11 10 8 6 6 5 4 4 3 3 3 3 2 2 1
12 13 14 14 14 14 14 15 17 19 19 18 18 17 17 17 18 19 20 21 20 19 18 19 19 18 17 17 16 15 14 13 13 12 12 15 18 19 19 19 19 19 20 20 20 19 17 17 16 15 14 13 13 13 12 12 12 13 13 12 11 10 10 10 11 13 14 14 14 13 11 10 8 7 6 5 4 3 2 2 1 0 2 3 4
12 13 13 13 13 14 15 16 16 17 17 15 14 14 15 17 20 22 23 23 23 22 21 20 19 19 19 18 17 16 16 15 14 12 11 13 18 21 21 22 22 22 23 23 22 21 19 18 17 16 14 13 13 13 13 12 12 12 13 12 11 11 11 10 11 13 14 14 14 13 12 10 8 7 6 4 3 2 2 1 2 3 5 6 6
11 12 12 13 13 13 15 16 15 15 14 13 12 13 15 18 20 22 22 22 22 22 21 20 19 19 19 19 18 17 17 17 17 16 13 12 14 19 21 22 22 23 24 24 22 21 19 17 16 15 14 14 14 14 14 13 13 12 12 11 11 12 11 10 10 12 14 14 13 12 11 9 7 6 5 4 3 2 1 2 4 5 6 7 6
10 11 12 13 13 13 14 15 15 15 14 13 13 13 15 18 19 20 21 21 20 19 19 20 20 19 19 19 19 18 18 17 17 18 17 15 14 16 17 18 17 17 20 23 24 22 19 17 15 15 15 14 15 15 15 15 14 14 13 13 13 13 12 10 11 13 13 13 12 11 10 9 7 5 4 3 2 1 2 4 5 6 6 5 5
11 12 14 14 15 15 15 16 17 16 15 15 15 15 16 17 18 18 19 19 19 19 19 20 20 20 19 18 17 18 19 18 17 17 17 18 19 17 16 19 21 19 17 18 20 21 21 19 17 17 16 16 16 16 16 17 17 16 16 15 14 14 14 13 14 15 15 13 12 11 9 8 6 5 4 2 1 1 2 3 4 4 4 3 3
13 14 15 15 15 16 17 18 19 18 18 19 19 19 18 19 19 19 18 19 19 19 19 20 20 19 19 18 17 18 19 18 17 17 16 16 20 21 19 21 24 22 18 15 15 17 19 18 16 16 16 17 18 18 18 18 18 18 18 18 17 16 16 16 16 17 16 14 13 11 10 8 7 6 4 3 2 1 1 2 2 2 2 3 4
14 14 14 14 15 15 17 18 19 20 20 20 20 20 20 20 20 20 19 19 20 20 20 20 20 18 19 19 19 19 19 17 16 16 15 14 17 22 23 23 22 20 19 18 18 19 18 14 13 16 18 20 21 20 19 18 17 17 17 17 18 18 17 17 16 15 15 15 14 12 11 9 7 6 5 3 2 2 1 1 1 2 2 2 4
15 15 14 14 14 15 17 19 19 19 19 20 20 21 21 21 21 20 19 20 20 20 21 21 19 18 18 19 18 18 19 18 17 17 16 14 14 17 22 26 27 25 23 21 21 23 23 23 24 27 26 25 24 22 21 20 19 17 16 15 16 16 16 16 15 14 14 15 14 11 9 8 7 5 4 3 2 2 2 1 1 2 2 3 5
16 15 15 15 16 17 18 19 19 19 19 20 21 22 22 22 21 21 21 21 20 21 21 21 20 19 19 18 17 17 17 17 17 17 17 15 13 12 14 18 22 24 26 27 26 26 26 27 29 30 29 27 24 22 22 23 22 20 19 18 17 16 15 15 15 15 14 14 12 10 8 7 6 5 4 3 3 2 2 1 1 2 3 5 6
Wind_Direction
186 183 185 188 193 195 197 200 202 204 205 198 190 189 188 190 187 185 195 201 201 200 199 196 189 187 189 185 184 183 175 153 138 139 131 126 131 125 110 87 68 71 63 94 160 167 248 257 253 241 242 234 219 217 206 190 180 177 178 181 169 154 150 162 184 190 167 137 128 128 137 157 150 140 187 216 225 296 324 304 300 317 345 304 301
168 172 183 188 191 192 195 201 204 204 205 203 198 197 195 193 192 191 196 200 202 202 196 194 193 190 186 181 177 168 155 143 132 129 121 116 118 119 119 110 104 93 83 97 113 104 165 233 233 228 226 223 228 227 201 172 170 172 167 160 161 158 156 163 165 165 166 157 149 138 115 94 79 76 78 66 45 54 55 53 55 78 86 46 15
196 184 185 190 188 187 192 199 205 205 204 204 203 204 200 196 198 200 200 200 201 201 196 198 199 195 186 173 168 157 146 142 134 129 123 121 118 113 114 112 113 107 99 105 106 116 189 229 221 218 217 223 235 230 199 181 175 174 171 158 156 155 147 158 163 169 187 177 154 153 150 136 103 80 65 46 42 64 67 70 75 81 83 71 57
211 197 187 192 189 186 190 196 201 203 203 203 204 205 201 198 202 205 205 203 201 200 200 203 199 191 180 165 160 150 143 142 136 134 131 130 126 116 113 115 118 117 110 107 103 111 164 197 192 205 221 220 226 226 203 195 184 168 171 164 159 158 146 151 166 180 191 178 151 133 150 185 186 128 85 56 54 73 71 71 79 81 76 62 53
216 209 194 190 192 190 192 195 197 200 201 203 204 203 201 199 203 206 206 204 201 200 202 204 196 182 168 154 148 139 140 144 141 140 141 139 135 126 123 124 127 130 122 107 89 70 65 108 155 178 210 209 198 210 194 187 185 159 169 173 168 165 151 146 156 166 177 182 177 145 150 197 172 153 140 79 59 64 66 67 73 73 65 56 56
220 216 199 187 191 190 192 195 196 198 202 205 205 203 202 201 202 205 205 204 201 202 206 206 195 182 168 157 150 143 142 150 150 147 147 147 144 139 137 132 132 136 129 109 83 66 71 96 112 171 199 207 194 204 201 188 178 159 165 172 177 174 156 152 157 157 166 180 188 180 186 194 147 156 172 121 83 65 61 67 69 74 76 70 69
220 216 200 187 188 188 192 195 197 200 204 205 203 202 203 202 203 204 204 204 202 204 207 203 195 188 181 174 167 158 151 154 154 148 147 149 144 140 139 133 130 134 129 110 88 80 81 97 111 126 105 102 156 165 173 171 172 183 176 160 177 186 174 169 165 155 153 162 177 180 184 183 160 152 161 145 117 81 70 74 74 81 86 80 74
212 209 197 190 190 189 191 192 198 205 206 204 201 201 203 204 207 207 205 206 205 205 205 201 196 193 189 186 179 168 157 150 146 144 144 143 138 138 137 129 124 125 121 112 105 90 74 74 97 123 93 83 120 126 134 142 145 167 168 155 167 176 176 177 172 164 155 145 147 150 148 159 162 154 159 161 144 121 100 88 82 83 84 82 78
206 203 192 190 190 188 186 187 198 207 207 204 200 200 204 207 209 208 206 204 202 202 200 198 197 196 193 189 177 164 153 145 140 139 140 139 137 140 140 131 123 120 112 113 118 100 79 66 66 115 117 100 116 115 118 129 132 144 147 149 159 165 168 171 175 172 161 148 145 142 136 137 141 145 161 165 150 143 134 116 104 90 79 74 75
204 201 190 184 184 181 178 182 195 205 207 202 198 199 202 206 207 204 202 199 197 197 196 197 198 197 195 188 170 157 153 152 145 141 142 141 141 142 140 133 125 121 113 113 121 109 96 75 62 109 138 121 118 111 108 115 121 133 133 138 147 156 165 164 164 164 156 150 151 150 145 146 151 154 160 160 150 142 136 137 132 110 90 76 72
197 189 173 163 165 169 170 174 187 198 201 197 196 198 200 201 201 199 197 195 194 194 196 197 196 195 195 186 171 163 164 163 155 151 152 149 148 146 141 135 126 120 117 119 125 115 102 84 74 117 138 132 124 114 108 107 107 112 116 124 133 138 145 142 142 148 149 149 152 155 157 162 165 161 157 155 149 142 138 138 133 120 109 96 81
185 173 157 150 154 164 171 171 176 188 192 191 195 196 196 198 195 190 191 193 193 194 195 196 194 195 196 189 179 173 174 173 165 161 160 157 157 153 146 137 127 123 126 127 127 115 99 92 98 132 144 141 133 120 113 111 107 105 106 112 119 122 125 125 129 138 143 142 142 139 132 130 131 132 136 139 140 143 141 133 132 129 117 109 101
174 163 154 157 164 172 179 176 175 185 189 191 194 193 194 194 190 190 191 188 182 176 174 175 180 189 191 190 188 181 178 178 168 161 161 165 168 164 156 142 132 136 140 136 132 121 107 101 115 140 147 145 137 124 119 118 113 109 108 109 111 116 119 119 121 127 131 131 131 127 122 120 119 121 124 126 129 138 139 132 133 137 128 123 120
165 155 156 162 161 168 181 182 181 183 185 187 190 192 192 190 193 192 172 139 131 133 141 149 157 171 191 200 196 187 188 184 164 145 150 173 181 183 176 150 138 148 150 141 131 118 105 108 120 130 133 134 133 126 125 126 121 118 116 112 111 116 119 118 117 120 124 126 129 130 128 125 124 124 125 128 132 140 143 140 136 132 130 129 123
123 115 110 100 87 72 42 14 355 331 210 188 186 190 188 190 198 169 116 107 121 139 157 164 163 172 194 199 193 202 210 191 161 133 155 198 194 195 189 154 143 152 153 141 125 102 91 106 118 121 124 125 126 129 132 133 132 128 125 120 120 122 123 122 122 124 127 131 136 136 131 127 125 124 122 122 127 135 142 145 143 139 136 135 130
108 102 90 84 86 88 85 59 346 319 301 242 191 190 191 195 169 114 105 121 171 196 193 183 178 187 198 192 184 202 212 204 208 205 205 203 196 198 192 158 145 151 151 141 121 92 86 97 104 106 106 100 105 131 145 148 145 138 133 130 128 130 129 126 127 130 131 132 136 133 126 122 121 118 114 111 111 116 130 147 152 152 149 143 143
112 110 105 93 84 84 99 114 181 276 281 270 213 197 207 198 132 113 117 188 216 209 194 182 190 202 208 201 190 196 203 215 237 225 205 199 196 199 194 164 147 149 151 145 126 97 92 94 91 88 81 72 72 88 126 149 152 145 140 135 132 131 129 125 125 128 129 129 130 127 123 120 118 113 108 105 104 105 112 122 135 151 154 150 149
126 124 122 110 101 87 59 69 87 240 254 258 242 216 216 196 145 138 173 223 213 194 184 195 212 211 208 203 196 197 198 210 229 223 208 204 196 191 193 179 152 146 152 153 142 120 110 103 93 84 76 72 70 74 87 106 125 133 131 128 127 125 122 122 124 126 127 128 127 125 123 121 119 115 109 105 103 102 102 102 102 108 119 126 135
119 117 114 102 106 110 83 74 81 92 61 69 177 211 207 195 168 164 187 207 197 190 197 211 219 212 205 201 200 205 201 204 221 220 209 206 192 179 186 186 163 150 152 158 159 147 137 128 110 93 80 75 70 71 79 85 96 112 119 118 120 122 119 118 120 123 124 125 125 124 123 122 120 117 114 111 108 108 105 101 97 95 96 100 108
83 96 93 74 80 94 95 92 89 83 75 88 122 165 184 189 187 183 186 190 191 195 202 210 214 211 207 204 207 214 209 206 213 214 212 212 200 183 186 187 171 159 156 159 166 164 156 151 139 123 104 90 80 78 83 86 91 100 111 117 121 125 122 119 120 122 122 124 125 124 123 124 122 120 119 118 116 116 113 108 103 98 97 97 93
78 79 78 67 67 82 92 94 97 104 110 122 135 148 164 175 187 193 193 192 194 199 204 210 214 211 207 206 210 211 208 207 209 212 216 217 210 197 194 190 175 167 168 168 174 175 171 167 160 153 142 128 118 107 102 99 100 103 109 118 126 130 131 129 129 128 129 132 133 132 130 128 126 125 124 123 123 123 120 115 112 108 103 97 91
70 77 80 78 69 63 72 83 98 110 116 129 138 142 151 161 183 195 198 200 202 205 206 208 211 210 206 207 211 210 206 206 210 213 217 220 217 208 202 196 186 180 179 178 180 184 183 179 173 172 168 161 157 152 139 126 122 120 119 123 132 139 140 143 145 144 144 144 143 143 140 137 137 135 133 133 133 132 129 124 118 115 111 102 94
75 82 81 79 72 63 59 61 71 89 104 118 124 132 147 161 181 195 200 207 212 214 211 210 210 211 211 212 214 214 211 213 217 216 218 222 221 215 212 207 200 195 191 186 184 186 189 185 181 184 186 185 184 181 176 166 155 152 154 159 165 168 167 165 166 165 166 166 161 157 154 150 150 148 145 145 144 142 138 133 126 118 115 108 98
66 70 70 67 66 63 58 51 51 61 72 90 108 124 147 164 180 194 203 211 218 221 220 218 217 216 219 223 223 223 223 225 224 220 221 224 223 223 225 219 214 209 203 198 192 188 189 189 189 190 191 198 208 210 208 202 198 196 198 209 215 216 217 214 206 198 195 196 194 193 192 180 171 167 163 160 157 154 147 139 133 124 119 111 100
54 56 59 58 58 57 53 49 50 54 56 61 74 87 113 152 183 201 211 216 221 227 228 227 226 225 227 230 232 233 233 231 229 227 227 227 226 228 230 226 221 214 210 207 200 192 191 192 194 193 187 185 195 207 217 222 229 235 239 244 246 244 244 241 238 236 231 228 225 225 227 217 201 192 183 177 176 171 162 156 148 138 132 120 104
55 55 58 58 59 57 54 52 53 52 49 49 51 53 59 75 137 228 244 238 231 234 237 236 236 236 236 238 238 235 231 228 227 230 232 230 229 231 231 226 221 214 210 208 203 195 188 181 180 182 180 181 187 196 208 219 238 254 261 264 265 264 261 257 256 257 252 250 252 248 247 243 227 217 214 208 204 199 189 183 173 160 151 134 113
58 56 60 60 59 58 53 51 52 49 47 48 48 46 45 47 48 346 291 273 253 241 240 242 244 245 245 245 243 237 231 227 228 234 238 234 230 232 235 230 222 216 211 206 199 188 178 174 182 193 197 206 225 234 231 240 270 284 280 276 276 279 280 276 273 273 265 257 254 248 245 247 242 238 244 244 233 221 210 202 195 181 165 147 125
56 53 55 56 55 52 48 47 48 47 46 49 52 54 52 47 36 347 279 269 263 252 244 247 249 251 253 254 251 244 234 226 228 235 238 233 229 231 236 232 224 219 213 208 205 200 195 196 205 224 236 239 249 258 258 268 289 298 297 290 286 287 290 286 283 281 273 262 255 250 244 243 245 243 241 241 237 230 219 209 203 194 179 161 139
54 51 51 52 50 48 47 46 46 45 45 46 49 54 56 54 52 40 291 267 264 260 257 258 259 261 264 264 261 252 234 222 222 228 229 227 227 230 230 227 224 222 218 218 222 221 216 211 213 230 248 249 246 251 259 270 281 292 299 296 289 286 285 283 281 277 273 268 262 257 250 247 253 252 242 237 239 241 234 225 217 207 197 188 165
54 51 50 49 47 46 45 45 44 42 43 44 44 48 53 54 53 49 40 353 289 277 276 276 274 273 273 271 267 255 234 223 223 228 230 229 228 227 223 218 218 217 217 221 225 220 216 221 226 229 236 242 248 256 265 274 280 286 291 289 283 278 276 276 275 273 271 270 268 264 259 257 261 261 248 237 237 241 241 240 237 224 211 200 180
54 52 51 50 47 45 44 43 42 39 40 41 39 43 49 52 51 48 44 39 16 333 300 292 287 282 279 274 264 251 237 234 235 237 236 233 229 226 219 215 215 217 219 225 225 218 220 230 233 228 226 229 239 258 272 282 286 286 285 281 274 269 268 268 271 272 271 270 269 267 266 265 265 265 255 240 234 235 234 232 229 217 206 201 190
50 48 46 46 44 43 41 40 40 37 37 35 33 38 44 46 48 49 47 45 40 22 342 314 301 291 288 283 270 257 248 247 250 249 246 241 236 233 225 222 225 227 230 230 227 226 228 228 225 225 226 225 231 251 268 273 276 278 277 273 267 265 265 265 266 267 267 267 267 267 269 270 270 271 265 248 234 226 221 217 211 202 199 200 197
44 41 38 36 34 35 34 34 35 33 34 35 34 36 37 38 43 45 46 49 47 41 28 1 326 302 296 292 283 273 265 260 260 258 256 251 244 241 238 237 238 237 235 229 225 229 232 226 222 226 231 230 233 244 252 253 255 261 264 263 260 260 262 262 261 261 261 262 264 267 273 275 273 273 266 251 235 218 207 202 200 198 198 198 202
41 38 35 30 26 26 26 27 28 29 31 35 34 32 31 31 34 37 41 46 48 47 46 37 19 345 312 299 290 284 278 271 266 262 262 260 253 249 251 252 249 241 231 222 221 224 227 225 225 228 228 227 227 230 231 231 236 242 242 243 246 251 254 254 255 255 254 255 257 258 263 267 266 263 253 240 225 206 193 188 190 193 193 195 211
34 31 28 25 21 19 19 20 24 26 28 29 27 25 23 23 26 28 31 35 37 38 42 41 37 30 6 332 308 295 286 278 269 262 260 260 260 259 257 255 251 241 228 222 221 221 222 222 220 218 216 215 214 214 216 216 214 209 205 213 233 244 246 247 246 246 245 246 248 243 235 234 238 239 236 221 203 191 185 183 184 186 189 204 236
30 23 19 17 14 11 10 13 19 23 23 21 20 19 17 15 15 17 20 23 24 24 27 26 24 23 18 4 341 315 299 287 270 256 251 251 252 250 248 247 245 239 231 227 225 224 224 221 217 216 215 206 194 194 198 194 186 180 178 192 222 234 234 230 224 213 198 187 184 185 187 196 210 208 182 178 184 184 181 181 181 185 200 223 241
28 21 16 14 12 10 10 13 18 22 20 15 13 12 12 11 7 5 7 9 11 13 12 5 360 1 2 356 346 326 302 287 270 248 238 235 233 229 225 224 225 222 219 219 220 222 223 220 219 221 214 190 173 174 177 175 173 172 171 179 208 215 199 180 157 135 128 128 126 124 126 133 147 150 146 155 170 176 178 181 187 196 207 212 218
24 19 15 12 12 11 11 11 13 15 12 9 7 5 5 5 2 359 357 356 355 351 346 342 341 344 347 349 344 330 305 280 261 243 227 218 214 211 205 202 202 202 200 200 202 201 195 189 190 188 180 171 164 161 165 171 172 170 168 172 187 182 163 148 134 127 126 125 121 112 106 115 132 139 143 150 159 169 179 185 190 191 186 186 210
22 19 13 8 8 8 7 8 8 5 1 359 358 358 358 357 353 349 347 347 346 341 334 328 324 323 326 331 332 328 317 294 267 244 222 212 208 204 196 189 186 184 179 173 169 161 151 145 144 142 144 153 156 157 164 170 172 171 169 172 175 166 153 145 139 135 134 130 124 117 114 122 135 139 143 149 152 158 169 173 174 171 163 177 220
16 15 9 4 6 5 4 3 1 357 353 351 350 350 350 347 342 338 336 339 339 338 334 328 320 315 313 314 316 315 315 309 285 251 225 211 207 205 197 186 181 178 171 163 157 151 143 136 133 133 138 145 151 158 165 169 174 176 172 172 175 167 157 152 148 144 139 133 129 125 125 130 136 139 143 147 147 148 153 159 169 169 169 191 226
7 5 2 358 359 359 356 352 348 346 346 344 344 344 342 338 335 331 329 330 329 328 326 324 321 316 311 309 307 304 302 302 294 265 234 217 210 207 199 189 184 180 171 163 159 152 143 137 134 135 140 146 154 162 167 172 177 177 172 173 177 173 165 158 152 146 140 137 137 136 134 136 140 143 145 146 147 150 158 181 195 197 201 212 220
357 359 359 354 348 346 346 342 339 338 337 336 336 335 332 330 327 323 321 323 323 319 316 314 313 310 307 306 304 300 294 293 294 279 246 225 214 206 199 192 186 179 171 164 159 152 145 140 138 139 142 146 154 162 169 175 178 176 171 171 178 179 171 162 156 150 146 145 146 145 144 145 148 150 152 155 161 169 177 192 198 199 223 262 286
351 352 353 349 341 337 336 334 333 332 331 332 329 325 321 317 311 308 311 314 315 314 311 308 304 302 301 299 298 297 290 280 282 285 264 235 217 204 197 194 187 179 174 169 162 157 152 148 146 145 146 148 152 158 167 174 177 175 169 168 175 179 173 167 163 159 156 154 154 153 150 151 154 156 158 161 166 171 164 151 137 354 325 330 336
344 342 343 341 334 329 326 325 325 325 325 325 321 315 309 303 298 298 301 303 304 306 307 304 301 298 295 293 293 294 289 275 266 274 275 250 225 209 199 194 190 183 178 173 168 163 160 156 152 149 151 153 153 156 163 171 175 174 170 168 171 172 169 167 165 163 161 160 159 157 153 153 155 153 150 150 146 136 111 70 13 340 338 343 345
332 331 333 331 324 318 316 314 315 316 316 314 311 304 296 293 295 298 299 298 299 300 301 300 299 296 293 291 289 288 288 283 269 260 259 248 228 213 201 194 192 188 182 177 172 169 165 159 155 155 156 157 158 160 163 166 169 170 168 166 166 165 164 165 164 164 163 162 158 154 149 148 147 141 135 132 123 101 43 356 337 336 344 346 341
326 326 328 325 320 316 313 311 312 313 311 308 304 296 289 289 294 297 297 296 295 293 292 291 291 291 290 289 287 283 283 286 281 266 253 237 223 216 208 201 199 198 191 184 179 176 173 167 163 163 163 162 163 165 165 165 165 166 164 164 164 163 163 166 164 162 159 155 151 149 146 145 145 143 142 137 116 49 352 337 333 336 346 349 342
326 328 328 326 322 318 316 314 314 314 313 309 306 299 293 293 294 294 294 293 290 285 282 280 279 281 282 282 282 280 277 280 284 281 265 242 228 225 221 213 207 205 202 195 186 180 177 174 172 171 170 169 170 170 169 168 168 168 166 165 165 164 162 162 160 157 155 153 150 149 149 150 151 152 148 134 101 28 355 348 347 350 356 354 343
326 326 325 323 319 316 315 314 314 314 313 310 306 303 299 297 295 293 291 288 284 281 278 275 272 272 272 272 273 275 274 273 276 281 278 256 236 229 228 223 214 203 194 195 193 187 181 178 178 181 181 178 179 180 179 177 176 176 172 169 167 166 165 164 163 160 157 155 151 148 148 148 147 145 137 123 112 97 43 17 24 30 9 350 342
322 320 319 317 314 313 313 311 311 311 310 307 304 303 301 298 295 293 289 284 281 280 278 275 271 267 264 264 266 267 268 268 269 271 276 269 248 234 229 229 225 212 202 200 200 202 205 208 218 223 212 198 193 192 189 185 184 185 183 178 173 171 169 169 169 165 159 154 151 150 149 147 146 147 142 136 129 118 91 84 73 43 12 348 339
320 319 318 317 314 312 309 306 305 305 303 301 299 299 298 296 294 290 286 281 279 279 277 274 269 264 259 257 257 258 259 261 263 263 264 268 263 244 231 229 230 229 230 229 220 217 227 239 246 244 231 215 207 200 189 185 187 187 185 181 175 172 171 168 165 164 161 157 154 151 150 152 155 157 154 151 145 133 127 121 59 7 354 342 337
322 322 320 318 316 313 308 303 303 302 300 298 297 295 294 293 291 287 282 277 274 273 273 272 269 265 261 256 253 252 252 254 257 257 253 249 246 238 229 231 235 236 238 239 234 229 232 239 242 238 226 215 210 201 189 186 185 182 178 174 169 168 168 166 164 163 161 158 155 153 154 158 161 159 157 153 142 134 131 102 2 345 344 342 338